Torna al catalogo

STARLINK-3906

AttivoComunicazioniVLEO
NORAD 52585·PAYLOAD·🇺🇸 United States

Lanciato May 13, 2022 da Vandenberg Space Force Base

Loading…

Prossimi Passaggi (prossime 24 ore)

TLE

AggiornatoSource: CelesTrak SupGP

Epoca: Sep 14, 2026, 21:11 UTC

1 52585C 22051BB  26257.88312500 -.00034910  00000+0 -21897-2 0  2578
2 52585  53.1604 349.1314 0001124  85.2890 143.0512 15.08844206    16

Traccia STARLINK-3906 in tempo reale con AllMySat

Download on the App Store